EW4092 Weather Reports


time (UTC)temp
C
wind
direction
speed
KPH
gust
KPH
rain 1hr
cm
rain 24hr
cm
rain mn
cm
humidity
%
barometer
mb
20260903174528 17 302 1.6 19.3 0.00 0.20 0.00 55 1010.0
20260903173024 16 84 3.2 16.1 0.00 0.20 0.00 61 1009.9
20260903171520 15 294 4.8 11.3 0.00 0.20 0.00 67 1010.1
20260903170020 15 287 4.8 8.0 0.00 0.20 0.00 67 1010.2
20260903164513 14 337 3.2 8.0 0.00 0.20 0.00 68 1010.3
20260903163008 14 269 1.6 8.0 0.00 0.20 0.00 70 1010.4
20260903161508 13 250 6.4 11.3 0.00 0.20 0.00 70 1010.4
20260903160007 13 67 0.0 6.4 0.00 0.20 0.00 72 1010.5
20260903154502 13 359 0.0 4.8 0.00 0.20 0.00 75 1010.4
20260903153002 12 312 0.0 3.2 0.00 0.20 0.00 79 1010.4
20260903151503 12 212 0.0 0.0 0.00 0.20 0.00 78 1010.4
20260903150108 13 75 0.0 0.0 0.00 0.20 0.00 80 1010.5
20260903144558 10 75 0.0 0.0 0.00 0.20 0.00 90 1010.5
20260903143056 8 75 0.0 0.0 0.00 0.20 0.00 93 1010.4
20260903141557 7 75 0.0 0.0 0.00 0.20 0.00 95 1010.2
20260903140053 6 75 0.0 1.6 0.00 0.20 0.00 94 1010.1
20260903134550 6 75 0.0 1.6 0.00 0.20 0.00 93 1009.9
20260903133047 6 75 0.0 0.0 0.00 0.20 0.00 94 1009.8
20260903131546 6 75 0.0 0.0 0.00 0.20 0.00 94 1009.7
20260903130108 6 75 0.0 1.6 0.00 0.20 0.00 94 1009.5
20260903124543 6 75 0.0 1.6 0.00 0.20 0.00 93 1009.6
20260903123040 7 75 0.0 0.0 0.00 0.20 0.00 93 1009.7
20260903121545 7 75 0.0 3.2 0.00 0.20 0.00 92 1009.7
20260903120035 8 75 0.0 0.0 0.00 0.20 0.00 93 1009.4
20260903114535 8 75 0.0 1.6 0.00 0.20 0.00 94 1009.4
20260903113036 8 75 0.0 0.0 0.00 0.20 0.00 92 1009.3
20260903111529 8 75 0.0 4.8 0.00 0.20 0.00 92 1009.3
20260903110103 8 82 0.0 1.6 0.00 0.20 0.00 92 1008.9
20260903104523 9 82 0.0 1.6 0.00 0.20 0.00 92 1008.8
20260903103022 10 82 0.0 1.6 0.00 0.20 0.00 93 1008.8
20260903101517 10 82 0.0 1.6 0.00 0.20 0.00 93 1008.6
20260903100014 10 82 0.0 3.2 0.00 0.20 0.00 93 1008.6
20260903094523 11 82 1.6 4.8 0.00 0.20 0.00 93 1008.5
20260903093007 11 132 0.0 0.0 0.00 0.20 0.00 92 1008.3
20260903091505 11 133 0.0 0.0 0.00 0.20 0.00 92 1008.3
20260903090005 11 133 0.0 0.0 0.00 0.20 0.00 92 1008.3
20260903084501 11 133 0.0 1.6 0.00 0.20 0.00 91 1008.0
20260903083158 12 208 0.0 0.0 0.00 0.20 0.00 89 1007.8
20260903081607 12 208 0.0 1.6 0.00 0.20 0.00 90 1007.8
20260903080056 12 208 0.0 3.2 0.00 0.20 0.00 91 1007.7
20260903074606 12 208 0.0 1.6 0.03 0.20 0.00 91 1007.5
20260903073052 12 208 0.0 1.6 0.03 0.20 0.00 90 1007.3
20260903071553 12 208 0.0 1.6 0.03 0.20 0.00 89 1007.2
20260903070047 13 208 0.0 3.2 0.03 0.20 0.00 89 1007.2
20260903064645 13 202 0.0 1.6 0.00 0.18 0.18 89 1007.2
20260903063045 13 248 0.0 1.6 0.00 0.18 0.18 89 1007.2
20260903061552 13 249 0.0 1.6 0.03 0.18 0.18 89 1007.3
20260903060045 13 246 0.0 3.2 0.05 0.18 0.18 89 1007.2
20260903054548 13 245 0.0 4.8 0.05 0.18 0.18 90 1007.2
20260903053102 13 287 1.6 12.9 0.08 0.18 0.18 90 1007.4
20260903051543 13 284 1.6 6.4 0.08 0.15 0.15 89 1007.3
20260903050143 13 287 3.2 6.4 0.05 0.13 0.13 89 1007.4
20260903044551 13 275 4.8 12.9 0.08 0.13 0.13 88 1007.1
20260903043040 13 262 3.2 9.7 0.05 0.10 0.10 87 1007.2
20260903041539 14 277 8.0 14.5 0.03 0.08 0.08 85 1007.2
20260903040039 14 295 3.2 11.3 0.00 0.05 0.05 82 1007.3
20260903034537 14 267 1.6 8.0 0.00 0.05 0.05 82 1007.0
20260903033037 14 304 1.6 8.0 0.00 0.05 0.05 82 1006.8
20260903031637 14 271 1.6 11.3 0.00 0.05 0.05 81 1006.7
20260903030041 15 355 0.0 4.8 0.00 0.05 0.05 81 1006.6
20260903024542 15 270 0.0 4.8 0.00 0.05 0.05 80 1006.6
20260903023035 15 249 0.0 9.7 0.00 0.05 0.05 79 1006.7
20260903021536 15 255 0.0 1.6 0.00 0.05 0.05 79 1006.7
20260903020034 15 256 1.6 8.0 0.00 0.05 0.05 79 1006.7
20260903014533 15 283 0.0 4.8 0.00 0.05 0.05 78 1006.7
20260903013132 15 269 1.6 8.0 0.00 0.05 0.05 77 1006.8
20260903011540 15 342 0.0 4.8 0.00 0.05 0.05 75 1006.7
20260903010031 15 263 0.0 6.4 0.00 0.05 0.05 74 1006.8
20260903004532 16 222 0.0 4.8 0.00 0.05 0.05 74 1006.8
20260903003030 16 287 1.6 11.3 0.00 0.05 0.05 68 1006.9
20260903001529 16 36 4.8 12.9 0.00 0.05 0.05 67 1006.9
20260903000028 16 104 4.8 12.9 0.00 0.05 0.05 67 1007.0
20260902234627 16 53 4.8 16.1 0.00 0.05 0.05 67 1007.1
20260902233035 16 69 4.8 11.3 0.00 0.05 0.05 71 1007.0
20260902231527 16 49 3.2 14.5 0.00 0.05 0.05 70 1006.9
20260902230026 16 94 3.2 14.5 0.03 0.05 0.05 70 1007.0
20260902224525 16 58 9.7 19.3 0.05 0.05 0.05 66 1006.8
20260902223025 16 81 9.7 27.4 0.05 0.05 0.05 66 1006.6
20260902221524 16 82 6.4 19.3 0.05 0.05 0.05 71 1006.6
20260902220125 16 60 8.0 27.4 0.03 0.03 0.03 70 1006.7
20260902214521 18 327 12.9 35.4 0.00 0.00 0.00 56 1006.6
20260902213021 19 89 14.5 27.4 0.00 0.00 0.00 52 1006.2
20260902211520 20 57 12.9 25.7 0.00 0.00 0.00 50 1005.9
20260902210020 22 32 4.8 14.5 0.00 0.00 0.00 40 1005.3
20260902204535 21 314 3.2 9.7 0.00 0.00 0.00 41 1005.1
20260902203021 21 250 1.6 14.5 0.00 0.00 0.00 41 1005.4
20260902201635 22 270 6.4 16.1 0.00 0.00 0.00 42 1005.4
20260902200016 22 11 3.2 16.1 0.00 0.00 0.00 39 1005.5
20260902194514 22 32 11.3 22.5 0.00 0.00 0.00 37 1005.6
20260902193010 22 15 8.0 17.7 0.00 0.00 0.00 38 1005.8
20260902191515 22 42 9.7 20.9 0.00 0.00 0.00 38 1006.0
20260902190007 22 56 12.9 29.0 0.00 0.00 0.00 38 1006.2
20260902184505 22 326 14.5 27.4 0.00 0.00 0.00 37 1006.1
20260902183103 22 101 6.4 14.5 0.00 0.00 0.00 40 1006.2
20260902181614 21 126 1.6 12.9 0.00 0.00 0.00 42 1006.5
20260902180100 20 270 1.6 9.7 0.00 0.00 0.00 47 1006.5